This is the latest recevied packets stored in our database for station/object DB0LER. If no packets are shown the sender has not sent any packets the latest 24 hours.

If you compare the raw packets with similar data from other websites it may differ (especially the path), the reason is that we are not collecting packets from the same APRS-IS servers. Each APRS-IS server performes duplicate filtering, and which packet that is considered to be a duplicate may differ depending on which APRS-IS server you receive your data from.

1620555641: DB0LER>APRX29,TCPIP*,qAC,DB0GW:T#041,288.999996185,288,344,,, Testing

1620555672: DB0LER>APRX29,DB0PDF-10,DB0DAM*,qAR,DG1RUE:T#041,288.999996185,288,344,,, Testing

1620555967: DB0LER>APRX29,TCPIP*,qAC,DB0GW:T#031,288.999996185,288,344,,, Testing

1620555998: DB0LER>APRX29,DB0PDF-10,DB0DAM*,qAR,DB0DRI:T#031,288.999996185,288,344,,, Testing

1620556262: DB0LER>APRX29,TCPIP*,qAC,DB0GW:T#086,287.999992371,287,347,,, Testing

1620556296: DB0LER>APRX29,DB0PDF-10,DG4BRT-1*,qAR,DB0WHV:T#086,287.999992371,287,347,,, Testing

1620556386: DB0LER>APRX29,TCPIP*,qAC,DB0GW::DB0LER :PARM.Temp1,Temp2,Feuchte

1620556386: DB0LER>APRX29,TCPIP*,qAC,DB0GW::DB0LER :EQNS.0,0.1,0,0,0.1,0,0,0.1,0

1620556386: DB0LER>APRX29,TCPIP*,qAC,DB0GW::DB0LER :UNIT.C,C,%

1620556418: DB0LER>APRX29,DB0PDF-10*,WIDE2-1,qAR,DB0EMS-5::DB0LER :UNIT.C,C,%

1620556418: DB0LER>APRX29,DB0PDF-10*,WIDE2-1,qAR,DB0EMS-5::DB0LER :PARM.Temp1,Temp2,Feuchte

1620556462: DB0LER>APRX29,TCPIP*,qAC,DB0GW:!5313.29N/00726.95E#APRS-Digi Leer

1620556561: DB0LER>APRX29,TCPIP*,qAC,DB0GW:T#067,288.999996185,288,350,,, Testing

1620556897: DB0LER>APRX29,TCPIP*,qAC,DB0GW:T#052,286.000003815,286,354,,, Testing

1620556934: DB0LER>APRX29,DB0PDF-10,DG4BRT-1*,qAR,DB0WHV:T#052,286.000003815,286,354,,, Testing

1620557247: DB0LER>APRX29,TCPIP*,qAC,DB0GW:T#082,287.000007629,287,360,,, Testing

1620557578: DB0LER>APRX29,TCPIP*,qAC,DB0GW:T#029,288.999996185,288,364,,, Testing

1620557931: DB0LER>APRX29,TCPIP*,qAC,DB0GW:T#036,287.999992371,287,362,,, Testing

1620558108: DB0LER>APRX29,TCPIP*,qAC,DB0GW:!5313.29N/00726.95E#APRS-Digi Leer

1620558262: DB0LER>APRX29,TCPIP*,qAC,DB0GW:T#078,295.0,295,362,,, Testing

1620558573: DB0LER>APRX29,TCPIP*,qAC,DB0GW:T#092,293.999996185,293,359,,, Testing

1620558882: DB0LER>APRX29,TCPIP*,qAC,DB0GW:T#014,295.0,295,342,,, Testing

1620559196: DB0LER>APRX29,TCPIP*,qAC,DB0GW:T#036,297.000007629,297,337,,, Testing

1620559492: DB0LER>APRX29,TCPIP*,qAC,DB0GW::DB0LER :EQNS.0,0.1,0,0,0.1,0,0,0.1,0

1620559492: DB0LER>APRX29,TCPIP*,qAC,DB0GW::DB0LER :UNIT.C,C,%

Initial position
Current position
Ruler